Location: Byhalia Creek
(34.8270°N, 89.8040°W)
Time: 09:06:52
(UTC+00:00)

Cosmos 2285 Rocket - Pass Details

Date: 22 April 2026
Orbit: 971 x 997 km, 74.0° (Epoch: 15 May)

Event Time Altitude Azimuth Distance (km) Brightness Sun altitude
Rises 02:39:47 0° 202° (SSW) 3,688 6.9 -23.6°
Reaches altitude 10° 02:42:21 10° 204° (SSW) 2,739 6.2 -24.0°
Maximum altitude 02:48:41 71° 288° (WNW) 1,037 4.2 -25.1°
Drops below altitude 10° 02:55:01 10° 13° (NNE) 2,735 6.6 -26.1°
Sets 02:57:34 0° 15° (NNE) 3,682 7.3 -26.5°
